Location: The Saddle
(36.8333°N, 80.3417°W)
Time: 09:09:50
(UTC-05:00)

A-11 Canister half - Pass Details

Date: 13 December 2023
Orbit: 1512 x 1687 km, 47.2° (Epoch: 27 February)

Event Time Altitude Azimuth Distance (km) Brightness Sun altitude
Rises 23:22:01 0° 261° (W) 4,683 - -72.1°
Reaches altitude 10° 23:25:08 10° 266° (W) 3,719 - -72.5°
Maximum altitude 23:34:20 54° 343° (NNW) 1,861 - -73.7°
Drops below altitude 10° 23:43:54 10° 59° (ENE) 3,858 - -74.7°
Sets 23:47:13 0° 64° (ENE) 4,868 - -75.0°
